Location: Constantia
(34.0183°S, 18.4411°E)
Time: 17:20:27
(UTC+00:00)

ATLAS 5 CENTAUR R/B - Pass Details

Date: 17 February 2020
Orbit: 548 x 1111 km, 63.4° (Epoch: 27 March)

Event Time Altitude Azimuth Distance (km) Brightness Sun altitude
Rises 03:52:15 0° 202° (SSW) 3,339 5.3 -6.8°
Reaches altitude 10° 03:55:12 10° 190° (S) 2,297 4.6 -6.3°
Maximum altitude 03:59:36 27° 132° (SE) 1,302 4.2 -5.4°
Drops below altitude 10° 04:03:30 10° 72° (ENE) 2,007 5.1 -4.6°
Sets 04:05:54 0° 60° (ENE) 2,841 5.6 -4.2°
